Weather History for New Ulm, MN

Change the Weather History Date:

Monday, February 4, 2013

  Actual Average Record
Temperature  
Mean Temperature 13 °F -  
Max Temperature 23 °F 24 °F 59 °F (2005)
Min Temperature 5 °F 5 °F -19 °F (1974)
Degree Days  
Heating Degree Days 52    
Moisture  
Dew Point 5 °F    
Average Humidity 76    
Maximum Humidity 86    
Minimum Humidity 62    
Precipitation  
Precipitation 0.00 in - - ()
Sea Level Pressure  
Sea Level Pressure 29.94 in    
Wind  
Wind Speed 6 mph (SE)    
Max Wind Speed 16 mph    
Max Gust Speed 17 mph    
Visibility 9 miles    
Events Snow    
Averages and records for this station are not official NWS values.
T = Trace of Precipitation, MM = Missing Value Source: NWS Daily Summary

Daily Weather History Graph

Daily Weather History Graph

Search for Another Location

Airport:

Trip Planner

Search our weather history database for the weather conditions in past years. The results will help you decide how hot, cold, wet, or windy it might be!

Date:

Astronomy

Feb. 04, 2013 Rise Set
Actual Time 7:32 AM CST 5:32 PM CST
Civil Twilight 7:01 AM CST 6:02 PM CST
Nautical Twilight 6:27 AM CST 6:37 PM CST
Astronomical Twilight 5:53 AM CST 7:11 PM CST
Moon 2:11 AM CST (2/4) 11:53 AM CST (2/4)
Length of Visible Light 11h 01m
Length of Day
9h 59m
Last Quarter, 37% of the Moon is Illuminated
Feb 4
Last Quarter
Feb 10
New
Feb 17
First Quarter
Feb 25
Full
Mar 4
Last Quarter

Hourly Weather History & Observations

Time (CST) Temp. Windchill Dew Point Humidity Pressure Visibility Wind Dir Wind Speed Gust Speed Precip Events Conditions
12:13 AM 12.2 °F 1.7 °F 8.6 °F 85% 29.92 in 7.0 mi NE 6.9 mph - N/A   Overcast
12:33 AM 12.2 °F -0.2 °F 8.6 °F 85% 29.93 in 7.0 mi NE 9.2 mph - N/A   Overcast
12:53 AM 12.2 °F -1.8 °F 8.6 °F 85% 29.93 in 10.0 mi NE 11.5 mph 17.3 mph N/A   Overcast
1:12 AM 12.2 °F -1.0 °F 8.6 °F 85% 29.92 in 10.0 mi NE 10.4 mph - N/A   Overcast
1:53 AM 12.2 °F -0.2 °F 8.6 °F 85% 29.93 in 10.0 mi NE 9.2 mph - N/A   Overcast
2:12 AM 12.2 °F -0.2 °F 8.6 °F 85% 29.93 in 10.0 mi NNE 9.2 mph - N/A   Overcast
2:33 AM 12.2 °F 0.7 °F 8.6 °F 85% 29.94 in 10.0 mi NNE 8.1 mph - N/A   Overcast
2:53 AM 12.2 °F -1.8 °F 8.6 °F 85% 29.95 in 10.0 mi NNE 11.5 mph - N/A   Overcast
3:13 AM 12.2 °F -2.5 °F 8.6 °F 85% 29.95 in 10.0 mi NNE 12.7 mph - N/A   Overcast
5:13 AM 8.6 °F 2.0 °F 3.2 °F 79% 29.99 in 10.0 mi North 3.5 mph - N/A   Clear
5:33 AM 6.8 °F - 3.2 °F 85% 29.99 in 10.0 mi Calm Calm - N/A   Clear
5:53 AM 6.8 °F - 3.2 °F 85% 29.99 in 10.0 mi Calm Calm - N/A   Clear
6:12 AM 6.8 °F -2.0 °F 3.2 °F 85% 29.99 in 10.0 mi NNE 4.6 mph - N/A   Clear
6:33 AM 6.8 °F - 1.4 °F 79% 30.00 in 10.0 mi Calm Calm - N/A   Clear
6:53 AM 6.8 °F -2.0 °F 1.4 °F 79% 30.01 in 10.0 mi North 4.6 mph - N/A   Clear
7:12 AM 5.0 °F -2.1 °F 1.4 °F 85% 30.02 in 10.0 mi North 3.5 mph - N/A   Clear
7:53 AM 5.0 °F - -0.4 °F 78% 30.01 in 10.0 mi Calm Calm - N/A   Clear
8:12 AM 5.0 °F - -0.4 °F 78% 30.02 in 10.0 mi Calm Calm - N/A   Clear
8:33 AM 6.8 °F - 1.4 °F 79% 30.02 in 10.0 mi Calm Calm - N/A   Clear
8:52 AM 6.8 °F - -0.4 °F 72% 30.03 in 10.0 mi Calm Calm - N/A   Clear
9:13 AM 6.8 °F -0.1 °F 1.4 °F 79% 30.04 in 10.0 mi North 3.5 mph - N/A   Clear
9:33 AM 6.8 °F - -0.4 °F 72% 30.04 in 10.0 mi Calm Calm - N/A   Clear
9:52 AM 8.6 °F - 1.4 °F 73% 30.05 in 10.0 mi Calm Calm - N/A   Clear
10:13 AM 8.6 °F - -0.4 °F 67% 30.04 in 10.0 mi Calm Calm - N/A   Clear
10:33 AM 8.6 °F - -0.4 °F 67% 30.04 in 10.0 mi Calm Calm - N/A   Clear
10:52 AM 8.6 °F 2.0 °F -0.4 °F 67% 30.04 in 10.0 mi NE 3.5 mph - N/A   Clear
11:13 AM 8.6 °F - 1.4 °F 73% 30.03 in 0.5 mi Calm Calm - N/A   Haze
11:33 AM 10.4 °F - -0.4 °F 62% 30.02 in 10.0 mi Calm Calm - N/A   Clear
11:52 AM 10.4 °F - -0.4 °F 62% 30.02 in 10.0 mi Calm Calm - N/A   Clear
12:33 PM 10.4 °F - -0.4 °F 62% 30.02 in 10.0 mi Calm Calm - N/A   Clear
12:52 PM 10.4 °F - -0.4 °F 62% 30.02 in 10.0 mi Calm Calm - N/A   Clear
1:13 PM 12.2 °F 6.1 °F 1.4 °F 62% 30.02 in 10.0 mi West 3.5 mph - N/A   Scattered Clouds
1:33 PM 12.2 °F 4.3 °F 1.4 °F 62% 30.01 in 10.0 mi West 4.6 mph - N/A   Mostly Cloudy
1:52 PM 12.2 °F 4.3 °F 1.4 °F 62% 30.00 in 10.0 mi West 4.6 mph - N/A   Overcast
2:13 PM 12.2 °F 6.1 °F 1.4 °F 62% 29.99 in 10.0 mi WSW 3.5 mph - N/A   Overcast
2:33 PM 12.2 °F 6.1 °F 1.4 °F 62% 29.98 in 10.0 mi WSW 3.5 mph - N/A   Overcast
2:52 PM 12.2 °F - 3.2 °F 67% 29.97 in 10.0 mi Calm Calm - N/A   Overcast
3:13 PM 12.2 °F 6.1 °F 3.2 °F 67% 29.95 in 10.0 mi WSW 3.5 mph - N/A   Mostly Cloudy
3:33 PM 14.0 °F 2.0 °F 3.2 °F 62% 29.93 in 10.0 mi South 9.2 mph - N/A   Scattered Clouds
3:52 PM 12.2 °F -0.2 °F 3.2 °F 67% 29.93 in 10.0 mi South 9.2 mph - N/A   Clear
4:13 PM 12.2 °F 0.7 °F 5.0 °F 73% 29.94 in 10.0 mi SSW 8.1 mph - N/A   Clear
4:33 PM 12.2 °F 1.7 °F 6.8 °F 79% 29.94 in 10.0 mi SW 6.9 mph - N/A   Clear
5:13 PM 14.0 °F - 6.8 °F 73% 29.93 in 10.0 mi Calm Calm - N/A   Mostly Cloudy
5:32 PM 12.2 °F - 6.8 °F 79% 29.92 in 10.0 mi Calm Calm - N/A   Overcast
5:53 PM 10.4 °F 0.8 °F 3.2 °F 73% 29.90 in 10.0 mi SE 5.8 mph - N/A   Overcast
6:12 PM 10.4 °F -0.4 °F 5.0 °F 79% 29.88 in 10.0 mi SE 6.9 mph - N/A   Overcast
6:33 PM 12.2 °F 0.7 °F 6.8 °F 79% 29.87 in 10.0 mi SE 8.1 mph - N/A   Scattered Clouds
6:53 PM 10.4 °F 0.8 °F 5.0 °F 79% 29.87 in 10.0 mi ESE 5.8 mph - N/A   Clear
7:12 PM 12.2 °F 1.7 °F 6.8 °F 79% 29.86 in 10.0 mi SE 6.9 mph - N/A   Clear
7:33 PM 12.2 °F 0.7 °F 6.8 °F 79% 29.85 in 10.0 mi SSE 8.1 mph - N/A   Scattered Clouds
7:53 PM 14.0 °F 2.0 °F 6.8 °F 73% 29.84 in 10.0 mi SSE 9.2 mph - N/A   Mostly Cloudy
8:12 PM 14.0 °F 5.1 °F 6.8 °F 73% 29.85 in 10.0 mi SSE 5.8 mph - N/A   Mostly Cloudy
8:33 PM 14.0 °F 6.5 °F 8.6 °F 79% 29.84 in 10.0 mi SSE 4.6 mph - N/A   Mostly Cloudy
8:53 PM 14.0 °F 8.2 °F 8.6 °F 79% 29.84 in 10.0 mi South 3.5 mph - N/A Snow Light Snow
9:12 PM 15.8 °F 10.2 °F 10.4 °F 79% 29.84 in 2.5 mi SSE 3.5 mph - N/A Snow Light Snow
9:33 PM 15.8 °F 10.2 °F 10.4 °F 79% 29.83 in 3.0 mi SSE 3.5 mph - N/A Snow Light Snow
9:53 PM 15.8 °F 8.6 °F 12.2 °F 86% 29.82 in 5.0 mi SSE 4.6 mph - N/A Snow Light Snow
10:13 PM 17.6 °F 10.7 °F 14.0 °F 86% 29.81 in 10.0 mi SE 4.6 mph - N/A   Overcast
10:33 PM 19.4 °F 11.5 °F 15.8 °F 86% 29.79 in 10.0 mi SSE 5.8 mph - N/A   Overcast
10:53 PM 19.4 °F 9.5 °F 15.8 °F 86% 29.77 in 7.0 mi South 8.1 mph - N/A Snow Light Snow
11:12 PM 21.2 °F 10.9 °F 17.6 °F 86% 29.75 in 10.0 mi South 9.2 mph - N/A   Overcast
11:33 PM 21.2 °F 8.3 °F 17.6 °F 86% 29.74 in 10.0 mi South 13.8 mph - N/A   Overcast
11:53 PM 23.0 °F 9.6 °F 19.4 °F 86% 29.72 in 10.0 mi South 16.1 mph - N/A   Overcast